Location: Capriglia
(40.9667°N, 14.7667°E)
Time: 14:25:58
(UTC+00:00)

Daily predictions for brighter satellites

Satellite Brightness Start Highest point End
(mag) Time Altitude Azimuth Time Altitude Azimuth Time Altitude Azimuth
USA 290 3.8 18:33:15 10° NNE 18:35:47 21° ENE 18:38:17 10° ESE
Cosmos 1933 4.5 18:32:46 10° SE 18:36:05 25° E 18:39:23 10° NE
USA 186 1.0 18:34:32 10° SSE 18:37:04 75° ENE 18:39:27 10° N
Cosmos 1408 Rocket 4.2 18:33:37 10° NNW 18:37:58 60° W 18:42:21 10° S
Cosmos 1689 Rocket 3.9 18:37:00 10° N 18:39:34 34° WNW 18:42:08 10° SW
Cosmos 2278 Rocket 3.9 18:38:01 10° ESE 18:40:28 13° E 18:42:54 10° ENE
IRIS 3.5 18:40:06 10° W 18:42:25 84° N 18:45:00 10° E
USA 267 4.1 18:37:36 10° SSE 18:43:52 47° SW 18:50:10 10° WNW
Cosmos 1844 Rocket 2.7 18:38:44 10° SSW 18:44:18 90° WNW 18:49:55 10° NNE
BREEZE-M R/B 2.9 18:41:58 10° WSW 18:45:06 50° NNW 18:47:29 10° NE
Cosmos 1606 2.7 18:43:47 10° S 18:47:32 86° W 18:51:21 10° N
Cosmos 1782 4.3 18:47:11 10° SE 18:50:03 19° E 18:52:55 10° NE
CZ-4C R/B 4.1 18:44:45 10° NNW 18:50:55 30° NE 18:57:52 10° E
ERS-2 2.7 18:47:37 10° N 18:51:13 61° WNW 18:54:47 10° SSW
GPS 2-04 Rocket1 3.9 18:47:50 10° SW 18:51:16 25° SSE 18:54:33 10° ESE
Cosmos 1242 Rocket 3.2 18:50:50 10° SSE 18:54:04 33° E 18:57:18 10° NNE
Cosmos 1805 Rocket 3.6 18:53:15 10° N 18:57:34 60° E 19:01:52 10° SSE
SJ-6B 2.9 18:56:41 10° S 19:00:33 78° WSW 19:04:31 10° NNW
MOS 1 4.3 18:55:39 10° SSE 19:01:16 70° ENE 19:06:55 10° N
Cosmos 1633 Rocket 4.3 18:59:58 10° NNE 19:03:42 26° ENE 19:06:32 14° SE
MOS 1-B Rocket 4.3 18:56:54 10° NNE 19:04:16 87° ESE 19:10:31 10° SSW
ATLAS 5 CENTAUR R/B 2.7 18:58:59 10° NNW 19:04:35 55° NE 19:10:14 14° SE
Cosmos 1503 Rocket 3.9 19:02:14 10° S 19:07:21 72° ESE 19:12:33 10° NNE
DELTA 2 R/B (1) 3.8 19:03:32 10° W 19:08:59 57° SSW 19:13:26 15° ESE
Cosmos 1386 Rocket 4.4 19:04:17 10° N 19:10:19 72° E 19:16:25 10° SSE
Cosmos 1812 4.5 19:12:18 14° ESE 19:13:07 15° E 19:15:24 10° NE
Cosmos 1844 4.2 19:08:34 10° SW 19:14:15 65° WNW 19:19:54 10° NNE
Ariane Rocket 3.0 19:11:06 10° SSE 19:16:09 90° ENE 19:21:15 10° NNW
BREEZE-M DEB (TANK) 3.2 19:14:23 10° W 19:16:26 29° SW 19:18:33 15° SSE
ARIANE 5 R/B 4.4 19:14:50 12° E 19:16:51 16° ENE 19:19:33 10° NNE
Resurs 1-3 3.6 19:16:05 10° SSE 19:20:28 89° WSW 19:24:53 10° NNW
Cosmos 1833 Rocket 4.0 19:17:09 10° N 19:21:53 26° NE 19:25:22 15° ESE
SL-4 R/B 3.5 19:18:35 10° WNW 19:22:31 32° SW 19:26:00 13° SSE
Cosmos 1745 Rocket 4.0 19:18:11 10° N 19:24:24 86° W 19:30:31 10° S
Cosmos 1709 Rocket 4.1 19:20:48 10° N 19:26:49 57° E 19:31:35 16° SSE
BREEZE-M DEB (TANK) 4.2 19:26:26 10° WNW 19:30:45 75° NNE 19:38:55 13° ESE
Cosmos 1666 Rocket 3.5 19:27:48 10° N 19:32:11 64° E 19:34:59 21° SSE
Cosmos 1437 2.9 19:33:32 36° ESE 19:33:55 38° E 19:36:35 10° NNE
NOSS 3-3 (A) 3.8 19:31:56 10° SSW 19:37:34 89° SE 19:43:59 10° NE
NOSS 3-3 (C) 3.8 19:32:02 10° SSW 19:37:41 89° ESE 19:44:05 10° NE
CZ-2C R/B 3.8 19:34:46 10° NNE 19:39:11 54° E 19:42:31 17° S
Cosmos 1354 Rocket 4.3 19:35:20 10° SSW 19:40:31 68° WNW 19:45:46 10° NNE
USA 245 4.1 19:43:37 17° NE 19:43:37 17° NE 19:44:40 10° NNE
SJ 16-02 2.3 19:42:36 27° ESE 19:43:14 28° E 19:47:01 10° NE
OBJECT-B 3.6 19:42:47 10° SW 19:44:55 16° W 19:47:03 10° NW
SPOT 1/Viking Rocket 3.8 19:42:56 25° SE 19:45:46 52° ENE 19:50:49 10° N
Meteor 1-26 Rocket 4.2 19:40:21 10° S 19:46:04 88° W 19:51:38 10° N
Sich 1 3.8 19:42:05 10° NNW 19:46:17 49° W 19:50:17 11° SSW
Cosmos 2315 Rocket 4.0 19:41:28 10° S 19:47:49 82° E 19:54:14 10° N
Iridium 4 Rocket 4.4 19:51:13 27° SE 19:53:29 37° E 19:58:51 10° NNE
Cosmos 1500 3.3 19:51:36 10° N 19:55:17 55° E 19:56:07 43° SE
Terra 3.4 19:54:08 19° E 19:55:24 21° ENE 19:58:56 10° NNE
BREEZE M DEB (TANK) 3.9 19:54:28 10° NW 19:58:04 22° N 19:59:40 13° NE
SPOT 3 Rocket 3.7 19:56:53 21° S 20:00:22 70° WSW 20:05:31 10° NNW
Cosmos 1151 Rocket 3.5 19:56:22 10° SSW 20:00:38 61° W 20:04:59 10° N
SPOT 5 3.9 19:59:19 28° ESE 20:01:01 35° ENE 20:05:45 10° N
Meteor 1-14 Rocket 4.2 19:55:30 10° N 20:01:21 75° E 20:04:21 30° SSE
Cosmos 2082 Rocket 3.4 19:56:56 10° N 20:01:44 28° NE 20:03:59 22° E
X-37B 0.4 20:01:25 10° WNW 20:04:37 80° SSW 20:04:43 78° S
Resurs 01 Rocket 2.3 20:02:15 20° SSW 20:05:07 50° W 20:09:28 10° NNW
Cosmos 2228 Rocket 4.2 20:08:08 27° E 20:08:08 27° E 20:11:43 10° NNE
COSMOS 2406 3.4 20:02:43 10° NNW 20:08:20 59° ENE 20:10:34 35° SE
Meteor 2-6 Rocket 4.0 20:12:08 30° S 20:14:49 72° E 20:20:19 10° NNE
Cosmos 1538 Rocket 4.2 20:11:51 10° NNW 20:17:10 61° ENE 20:18:45 42° SE
Meteor 1-27 Rocket 4.4 20:16:22 33° ESE 20:17:21 36° E 20:22:40 10° NNE
MetOp-B 4.4 20:15:10 26° S 20:18:08 63° WSW 20:23:28 10° NNW
Cosmos 1271 Rocket 3.0 20:19:15 51° E 20:19:15 51° E 20:23:01 10° NNE
Cosmos 773 Rocket 4.2 20:15:14 10° NNW 20:20:30 67° WSW 20:22:41 35° S
Cosmos 2278 Rocket 2.2 20:18:04 10° SSW 20:23:43 82° WNW 20:29:25 10° NNE
Spot 2 Rocket 3.4 20:22:06 43° SSE 20:23:47 88° ENE 20:28:51 10° NNW
BREEZE-M DEB (TANK) 3.9 20:26:36 10° NNW 20:27:56 16° NNE 20:27:56 16° NNE
GPS 2-04 Rocket1 4.1 20:26:27 10° WSW 20:28:41 27° SW 20:28:41 27° SW
USA 305 3.8 20:26:24 10° NW 20:30:27 41° NNE 20:31:23 35° ENE
Cosmos 1943 Rocket 3.9 20:32:27 18° ENE 20:32:27 18° ENE 20:34:45 10° NE
Cosmos 1515 Rocket 3.8 20:29:37 35° SSW 20:31:19 65° W 20:35:42 10° N
ERS-1 Rocket 3.0 20:30:20 52° SE 20:31:25 68° ENE 20:36:25 10° N
BREEZE-M DEB (TANK) 3.9 20:30:42 10° WNW 20:35:39 31° SW 20:35:39 31° SW
Cosmos 1869 Rocket 4.2 20:35:06 10° N 20:38:55 41° ENE 20:38:55 41° ENE
CZ-4C R/B 3.0 20:32:44 10° NW 20:40:14 81° WSW 20:43:47 39° SSE
Meteor 1-11 Rocket 3.8 20:40:42 10° N 20:46:39 69° ENE 20:47:53 54° SE
Cosmos 1812 4.2 20:47:18 26° WSW 20:48:33 33° WNW 20:52:05 10° NNW
ATLAS 5 CENTAUR R/B 3.8 20:44:01 10° WNW 20:49:09 29° WSW 20:51:47 22° SSW
USA 306 3.3 20:45:38 10° NW 20:49:50 54° NE 20:49:58 54° NE
ARIANE 5 R/B 3.2 20:52:22 43° WSW 20:52:55 46° W 20:57:07 10° NNW
Cosmos 1340 Rocket 4.2 20:52:39 10° N 20:55:28 30° NE 20:55:28 30° NE
CARTOSAT-1 4.3 20:56:42 43° WSW 20:57:08 44° W 21:01:17 10° NNW
Cosmos 1666 3.7 20:57:17 10° NNW 21:00:28 40° WNW 21:00:28 40° WNW
Meteor 2-12 Rocket 4.3 20:58:06 10° N 21:04:11 89° W 21:05:22 61° S
SL-24 DEB 4.1 21:05:35 82° N 21:05:35 82° N 21:10:01 10° N
Cosmos 1833 Rocket 3.3 21:00:37 10° NW 21:06:00 47° WSW 21:07:04 42° SW
Cosmos 1898 Rocket 3.6 21:07:15 60° E 21:07:15 60° E 21:12:05 10° NNE
Cosmos 2154 Rocket 3.9 21:02:08 10° N 21:08:29 89° E 21:09:43 61° S
Cosmos 923 Rocket 3.9 21:04:44 10° NNW 21:10:01 77° ENE 21:10:12 76° E
Cosmos 1536 3.5 21:07:26 10° N 21:10:33 52° N 21:10:33 52° N
Cosmos 2184 Rocket 4.4 21:09:46 10° NNW 21:15:48 54° W 21:17:33 41° SW
Cosmos 1743 4.2 21:12:10 10° N 21:14:28 31° NNE 21:14:28 31° NNE
USA 307 3.5 21:12:13 10° NW 21:15:38 55° NW 21:15:38 55° NW
H-2A R/B 4.1 21:14:26 10° N 21:18:18 52° WNW 21:18:18 52° WNW
Cosmos 990 Rocket 3.9 21:20:01 78° WSW 21:20:15 80° WNW 21:25:32 10° NNE
SJ 16-02 3.3 21:19:29 18° WSW 21:21:45 26° WNW 21:25:29 10° N
Nadezhda 1 Rocket 4.2 21:19:52 45° SW 21:21:45 66° W 21:27:59 10° N
NOSS 3-4 (A) 3.8 21:15:12 10° NW 21:22:22 81° WSW 21:24:06 58° SSE
Cosmos 962 Rocket 4.4 21:16:21 10° N 21:22:28 67° E 21:22:54 64° ESE
NOSS 3-4 (C) 3.8 21:15:19 10° NW 21:22:28 82° WSW 21:24:13 58° SSE
Cosmos 2297 3.6 21:22:46 75° E 21:22:46 75° E 21:28:19 10° NNE
Cosmos 1733 Rocket 4.2 21:24:53 10° N 21:27:49 36° NNE 21:27:49 36° NNE
USA 308 4.0 21:25:49 10° NW 21:28:43 42° WNW 21:28:43 42° WNW
Terra 2.6 21:33:01 42° W 21:33:01 42° W 21:37:22 10° NNW
ATLAS 2AS CENTAUR R/B 2.7 21:28:37 10° NNW 21:35:56 76° NE 21:37:04 63° ESE
SPOT 5 4.4 21:38:33 28° WSW 21:39:05 28° W 21:43:33 10° NW
Cosmos 2181 Rocket 3.9 21:44:37 70° E 21:44:37 70° E 21:50:39 10° NNE
Cosmos 2082 Rocket 2.9 21:40:40 10° NW 21:45:50 43° WSW 21:45:50 43° WSW
Cosmos 2112 Rocket 4.2 21:43:21 10° NNW 21:48:11 69° WNW 21:48:11 69° WNW
Cosmos 44 3.7 21:47:11 10° NNW 21:51:59 68° N 21:51:59 68° N
Spot 4 4.4 21:55:19 53° NNE 21:55:19 53° NNE 21:59:14 10° N
Cosmos 2366 rocket 4.0 21:49:47 10° N 21:55:56 68° E 21:55:56 68° E
Cosmos 2341 Rocket 4.1 21:57:27 10° NNW 22:03:49 68° W 22:04:08 66° WSW
Cosmos 1937 Rocket 4.1 22:09:32 49° WNW 22:09:32 49° WNW 22:14:22 10° N
Cosmos 489 Rocket 4.4 22:07:08 10° NNW 22:13:17 82° NE 22:13:17 82° NE
Cosmos 1943 Rocket 2.6 22:13:55 56° WNW 22:14:03 56° WNW 22:19:36 10° NNE
Cosmos 2369 Rocket 2.5 22:17:10 60° NE 22:17:10 60° NE 22:21:46 10° NNE
Cosmos 2218 Rocket 3.9 22:12:02 10° N 22:18:16 79° W 22:18:16 79° W
Centaur D AC-29 4.4 21:51:42 10° WSW 22:20:13 34° SSW 22:20:13 34° SSW
Gbstr 26 Del rocket 4.3 22:15:46 10° NW 22:22:50 61° NNE 22:23:48 55° ENE
Cosmos 1238 Rocket 4.3 22:19:54 10° NNW 22:25:13 48° WNW 22:25:13 48° WNW
Cosmos 1607 4.2 22:26:49 61° ENE 22:26:49 61° ENE 22:32:24 10° NE
Cosmos 1656 Rocket 4.3 22:35:34 49° NE 22:35:34 49° NE 22:39:39 10° NNE
Thor Agena Rocket 4.5 22:29:25 10° NNE 22:33:11 42° NE 22:33:11 42° NE
Nadezhda 3 Rocket 4.2 22:35:11 60° ENE 22:35:11 60° ENE 22:40:51 10° NNE
Cosmos 1818 4.2 22:30:07 10° NW 22:34:12 49° NW 22:34:12 49° NW
ALOS 2 4.1 22:41:06 35° NNW 22:41:06 35° NNW 22:43:42 10° NNW
Cosmos 2263 4.5 22:43:18 67° NNE 22:43:18 67° NNE 22:48:18 10° NNE
Meteor 2-4 Rocket 4.1 22:47:05 60° NW 22:47:05 60° NW 22:52:09 10° N
BREEZE-M DEB (TANK) 3.9 22:47:34 10° WNW 22:58:40 73° N 22:58:40 73° N
RESURS DK-1 4.4 23:01:34 10° NNW 23:03:31 26° NNW 23:03:31 26° NNW
SeaSat 1 3.3 23:05:02 10° NNE 23:08:32 47° NE 23:08:32 47° NE
Cosmos 1833 4.5 23:04:23 10° NNW 23:09:23 67° N 23:09:23 67° N
Meteor 1-12 Rocket 4.5 23:07:36 10° N 23:12:43 69° NNW 23:12:43 69° NNW
Cosmos 2239 Rocket 4.5 23:07:34 10° N 23:13:34 80° NW 23:13:34 80° NW
ISS -0.4 23:18:17 13° NNE 23:18:17 13° NNE 23:18:55 10° NNE
USA 215 3.6 23:13:57 36° E 23:16:38 62° NE 23:23:04 10° NW
Cosmos 1125 Rocket 4.2 23:26:49 50° NNW 23:26:49 50° NNW 23:31:07 10° NNE
ATLAS 2AS CENTAUR R/B 4.4 23:21:03 10° WNW 23:24:29 19° W 23:24:29 19° W
Cosmos 1867 4.4 23:25:56 42° NW 23:26:00 42° NW 23:31:12 10° NNE
Cosmos 44 Rocket 4.1 23:26:39 10° NNW 23:31:24 51° NE 23:31:24 51° NE
ATLAS CENTAUR R/B 3.6 23:38:29 21° N 23:38:29 21° N 23:40:09 10° NNE
USA 281 4.1 23:36:59 27° ESE 23:40:02 42° ENE 23:46:08 10° N
Cosmos 1934 Rocket 4.0 23:36:28 10° N 23:42:10 71° WNW 23:42:10 71° WNW
Cosmos 1339 Rocket 4.4 23:42:53 89° WSW 23:42:54 89° W 23:49:20 10° N
USA 81 4.3 23:46:03 10° N 23:50:37 67° N 23:50:37 67° N
Lacrosse 5 2.5 23:54:51 53° NE 23:54:51 53° NE 23:58:44 10° NE
